Regional Weather Roundup
Issued by NWS

Home | Current Version | Previous Version | Graphics & Text | Print | Product List | Glossary On
Versions: 1 2 3 4 5 6 7 8 9 10 11 12 13 14 15 16 17 18 19 20 21 22 23 24 25 26 27 28 29 30 31 32 33 34 35 36 37 38 39 40 41 42 43 44 45 46 47 48 49 50
007
ASUS43 KDTX 262210
RWRMI
MICHIGAN HOURLY REGIONAL WEATHER ROUNDUP
NATIONAL WEATHER SERVICE DETROIT/PONTIAC MI
600 PM EDT TUE SEP 26 2017

NOTE: "FAIR" INDICATES FEW OR NO CLOUDS BELOW 12,000 FEET WITH NO
SIGNIFICANT WEATHER AND/OR OBSTRUCTION TO VISIBILITY.

MIZ047>049-052>055-059>063-066>070-074>076-081>083-262300-
SOUTHEAST LOWER MICHIGAN

CITY           SKY/WX    TMP DP  RH WIND       PRES   REMARKS
ADRIAN         SUNNY     88  58  36 W7        29.94F
ALMA           SUNNY     88  54  30 SW7       29.91S
ANN ARBOR      SUNNY     88  60  38 SW9       29.93S
BAD AXE        SUNNY     85  58  39 E3        29.92S
CARO           SUNNY     88  54  31 SW7       29.90F
DETROIT CITY   MOSUNNY   87  63  44 S8        29.92S
DETROIT        MOSUNNY   90  61  37 W10       29.92S HX  90
FLINT          SUNNY     89  55  31 W9        29.92S
GROSSE ILE     SUNNY     81  68  63 S8        29.92S
HILLSDALE      CLOUDY    86  59  39 SW6       29.96S
HOWELL         SUNNY     89  55  31 SW7       29.93S

CITY           SKY/WX    TMP DP  RH WIND       PRES   REMARKS
JACKSON        MOSUNNY   87  59  38 SW9       29.94S
LAMBERTVILLE   SUNNY     88  60  38 CALM      29.93S
LANSING        MOSUNNY   89  58  34 SW12      29.92S
LAPEER         FAIR      89  54  30 CALM      29.92F
MASON          MOSUNNY   90  58  34 W5        29.93S
MONROE         SUNNY     89  60  36 SW6       29.92S
MT. CLEMENS    MOSUNNY   83  67  57 S10       29.90F
PONTIAC        MOSUNNY   89  57  33 W7        29.92F
PORT HOPE        N/A     77  66  68 SE9       29.90F
PORT HURON     SUNNY     86  61  42 S7        29.92S
TRI CITIES     MOSUNNY   89  55  31 SW6       29.90F
MIDLAND        FAIR      91  56  30 W7        29.88F
TROY           SUNNY     91  55  29 W7        29.94S
SAGINAW HB     SUNNY     90  52  27 SW8       29.89S
$$
MIZ043>046-050>051-056>058-064>065-071>073-077>080-262300-
SOUTHWEST LOWER MICHIGAN

CITY           SKY/WX    TMP DP  RH WIND       PRES   REMARKS
BATTLE CREEK   SUNNY     88  60  38 SW9       29.94S
BENTON HARBOR  SUNNY     88  58  36 SW9       29.91F
BIG RAPIDS     MOSUNNY   83  58  42 W10       29.91S
COLDWATER      MOSUNNY   86  57  37 SW7       29.94F
FREMONT        FAIR      83  60  44 SW8       29.91S
HOLLAND        SUNNY     88  60  38 SW15      29.91F
GRAND RAPIDS   MOSUNNY   88  59  37 SW16G22   29.91F
IONIA          FAIR      90  57  33 SW10      29.91S
KALAMAZOO      MOSUNNY   88  58  36 S8        29.93S
LUDINGTON      CLOUDY    79  62  57 SW9       29.88F
MARSHALL       MOSUNNY   85  61  44 SW7       29.93F
MOUNT PLEASANT SUNNY     89  56  32 W7        29.89S
MUSKEGON       PTSUNNY   84  61  45 S10       29.90F
SOUTH HAVEN    CLOUDY    88  58  37 SW7       29.91F
$$
MIZ016>042-262300-
NORTHERN LOWER MICHIGAN

CITY           SKY/WX    TMP DP  RH WIND       PRES   REMARKS
ALPENA         CLOUDY    86  62  44 S5        29.88S
BEAVER ISLAND  CLOUDY    72  65  79 SW6       29.87S
BELLAIRE       PTSUNNY   78  63  60 CALM      29.88F
CADILLAC       PTSUNNY   84  58  40 SW10      29.92S
CHARLEVOIX     MOSUNNY   76  61  58 W7        29.90F
FRANKFORT      CLOUDY    76  66  71 SW8       29.88S
GAYLORD        CLOUDY    78  62  57 W10       29.91S
GRAYLING       CLOUDY    82  59  45 CALM      29.91S
HARBOR SPRINGS PTSUNNY   75  63  66 W6        29.87F
HOUGHTON LAKE  CLOUDY    84  59  42 S5        29.91F
MANISTEE       MOSUNNY   81  64  56 SW9G16    29.88S
OSCODA         CLOUDY    85  56  37 S6        29.88F
PELLSTON       CLOUDY    79  61  53 SW6       29.87F
ROGERS CITY    CLOUDY    84  61  45 N9G16     29.87S
TRAVERSE CITY  PTSUNNY   83  62  49 SW6       29.86S
$$
MIZ007>008-015-262300-
EASTERN UPPER MICHIGAN

CITY           SKY/WX    TMP DP  RH WIND       PRES   REMARKS
KINROSS        CLOUDY    77  62  59 S3        29.87F
MACKINAC ISLAN PTSUNNY   74  62  66 SW6       29.87S
NEWBERRY       PTSUNNY   72  68  88 S3        29.86S
S. S. MARIE    CLOUDY    78  61  55 S6        29.85F
MUNISING         N/A     75  68  78 CALM      29.83S
$$
MIZ004>006-011>014-085-262300-
CENTRAL UPPER MICHIGAN

CITY           SKY/WX    TMP DP  RH WIND       PRES   REMARKS
MANISTIQUE     CLOUDY    69  63  81 S5        29.85S
MENOMINEE      CLOUDY    75  66  73 SW6       29.87S
SAWYER-GWINN   CLOUDY    72  64  78 S9        29.85F
$$
MIZ001>003-009>011-084-262300-
WESTERN UPPER MICHIGAN

CITY           SKY/WX    TMP DP  RH WIND       PRES   REMARKS
IRON MOUNTAIN  CLOUDY    73  64  73 S12       29.84F
HOUGHTON       LGT RAIN  60  58  92 NW8       29.82F FOG
COPPER HARBOR    N/A     59  58  96 CALM      29.82F
IRONWOOD       LGT RAIN  59  57  93 W12       29.90R FOG
$$

ABBREVIATIONS USED IN REMARKS
   TC - TEMPERATURE IN CELSIUS
  WCI - WIND CHILL INDEX
   HX - HEAT INDEX
  VSB - VISIBILITY





USA.gov is the U.S. government's official web portal to all federal, state and local government web resources and services.